"Pseudo-MPEC" for P10V2KO

Created 2019 Dec 3 23:07:33 UT using Find_Orb

Click here for an explanation of pseudo-MPECs

 
 Astrometry: 
     P10V2KO  C2019 11 30#?Astrometry[)qdredacted;lX]+wR]M+IT'C_`O9OAW0O`cYc]F51
     P10V2KO  C2019 11 30:FTX8click2owdH[7-*lihere'+OVDYRforUi'o-`3DTYxfrd[INF51
     P10V2KO  C2019 11 30]*@Eh24pexplanation==;PXqt_f'yy%S3Ws_AU.J89D]'VKQMiXF51
     P10V2KO ^C2019 12 02.27961700 09 51.167+23 58 28.93   ~C2Mb 21.56GVNEOCP568
     P10V2KO ^C2019 12 02.28056900 09 51.393+23 58 29.38   ~C2Mb 21.69GVNEOCP568
     P10V2KO ^C2019 12 02.28151800 09 51.614+23 58 29.81   ~C2Mb 21.56GVNEOCP568
     P10V2KO ^C2019 12 02.28246400 09 51.839+23 58 30.29   ~C2Mb 21.68GVNEOCP568
     P10V2KO KC2019 12 03.24160 00 13 55.42 +24 06 07.3    ~C36M       oNEOCP291
     P10V2KO KC2019 12 03.24686 00 13 56.73 +24 06 09.5    ~C36M 21.5 RoNEOCP291

Station data:
(291) LPL/Spacewatch II  (N31.961669 W111.599905)  US/Arizona.  Observers J.
   V. Scotti, R. S. McMillan. 1.8-m f/2.7 reflector + CCD.
(568) Mauna Kea  (N19.826116 W155.472200)  US/Hawaii.
(F51) Pan-STARRS 1, Haleakala  (N20.707235 W156.255910)  US/Hawaii.
   Observers N. Primak, A. Schultz, S. Watters, J. Thiel, T. Goggia. Measurer
   PS1 Science Consortium. 1.8-m Ritchey-Chrétien + CCD.

Orbital elements:  P10V2KO
   Perihelion 2019 Dec 2.738239 +/- 0.114 TT = 17:43:03 (JD 2458820.238239)
Epoch 2019 Dec  3.0 TT = JDT 2458820.5   Earth MOID: 0.1436   AutoNEOCP
M   0.10226094 +/- 0.038            (J2000 ecliptic)
n   0.39066537 +/- 0.023            Peri.  127.33315 +/- 0.17
a   1.85324471 +/- 0.0728           Node   293.64566 +/- 0.34
e   0.3999983 +/- 0.0204            Incl.    5.01601 +/- 0.18
P   2.52/921.49d           H 23.3   G  0.15   U 10.2  
q 1.11194982 +/- 0.00606    Q 2.59453959 +/- 0.146
From 9 observations 2019 Nov. 30-Dec. 3; mean residual 0".06
Residuals in arcseconds: 
191130 F51  .16+  .02+    191202 568  .00   .05-    191202 568  .03+  .03-    
191130 F51  .06-  .00     191202 568  .02+  .05-    191203 291  .09-  .06+    
191130 F51  .11-  .04+    191202 568  .01-  .07-    191203 291  .08+  .04+    

Ephemerides (geocentric):
Date (UTC) HH   RA              Dec         delta   r     elong  mag " sig PA
---- -- -- --  -------------   -----------  ------ ------ -----  --- ---- ---
2019 12 03 23  00 17 03.478   +24 12 00.54  .21793 1.1120 120.4 22.0 1.94  74
2019 12 04 00  00 17 14.402   +24 12 20.37  .21794 1.1120 120.4 22.0 2.01  74
2019 12 04 01  00 17 25.336   +24 12 40.18  .21794 1.1120 120.4 22.0 2.07  74
2019 12 04 02  00 17 36.279   +24 12 59.97  .21794 1.1120 120.4 22.0 2.14  74
2019 12 04 03  00 17 47.233   +24 13 19.74  .21795 1.1120 120.4 22.0 2.20  74
2019 12 04 04  00 17 58.196   +24 13 39.50  .21795 1.1120 120.4 22.0 2.27  74
2019 12 04 05  00 18 09.170   +24 13 59.23  .21796 1.1121 120.4 22.0 2.34  74
2019 12 04 06  00 18 20.153   +24 14 18.94  .21796 1.1121 120.4 22.0 2.41  74
2019 12 04 07  00 18 31.146   +24 14 38.63  .21797 1.1121 120.4 22.0 2.48  74
2019 12 04 08  00 18 42.149   +24 14 58.30  .21797 1.1121 120.4 22.0 2.55  74
2019 12 04 09  00 18 53.162   +24 15 17.94  .21798 1.1121 120.4 22.0 2.63  74
2019 12 04 10  00 19 04.185   +24 15 37.57  .21798 1.1121 120.4 22.0 2.70  74
2019 12 04 11  00 19 15.218   +24 15 57.18  .21799 1.1121 120.5 22.0 2.78  74
2019 12 04 12  00 19 26.260   +24 16 16.76  .21799 1.1121 120.5 22.0 2.85  74
2019 12 04 13  00 19 37.313   +24 16 36.33  .21800 1.1121 120.5 22.0 2.93  74
2019 12 04 14  00 19 48.375   +24 16 55.87  .21800 1.1121 120.5 22.0 3.01  74
2019 12 04 15  00 19 59.447   +24 17 15.39  .21801 1.1121 120.5 22.0 3.09  74
2019 12 04 16  00 20 10.528   +24 17 34.89  .21801 1.1121 120.5 22.0 3.17  74
2019 12 04 17  00 20 21.620   +24 17 54.37  .21802 1.1121 120.5 22.0 3.26  74
2019 12 04 18  00 20 32.721   +24 18 13.83  .21802 1.1121 120.5 22.0 3.34  74
2019 12 04 19  00 20 43.832   +24 18 33.26  .21803 1.1122 120.5 22.0 3.43  74
2019 12 04 20  00 20 54.953   +24 18 52.67  .21804 1.1122 120.5 22.0 3.51  74
2019 12 04 21  00 21 06.083   +24 19 12.07  .21804 1.1122 120.5 22.0 3.60  74
2019 12 04 22  00 21 17.223   +24 19 31.43  .21805 1.1122 120.5 22.0 3.69  74
2019 12 04 23  00 21 28.373   +24 19 50.78  .21806 1.1122 120.5 22.0 3.78  74
2019 12 05 00  00 21 39.533   +24 20 10.10  .21806 1.1122 120.5 22.0 3.87  74
2019 12 05 01  00 21 50.702   +24 20 29.40  .21807 1.1122 120.5 22.0 3.96  74
2019 12 05 02  00 22 01.881   +24 20 48.68  .21808 1.1122 120.5 22.0 4.05  74
2019 12 05 03  00 22 13.069   +24 21 07.94  .21808 1.1122 120.5 22.0 4.15  74
2019 12 05 04  00 22 24.267   +24 21 27.17  .21809 1.1122 120.5 22.0 4.24  75
2019 12 05 05  00 22 35.475   +24 21 46.38  .21810 1.1122 120.5 22.0 4.34  75
2019 12 05 06  00 22 46.692   +24 22 05.56  .21811 1.1123 120.5 22.0 4.44  75
2019 12 05 07  00 22 57.919   +24 22 24.73  .21811 1.1123 120.5 22.0 4.54  75
2019 12 05 08  00 23 09.156   +24 22 43.87  .21812 1.1123 120.5 22.0 4.64  75
2019 12 05 09  00 23 20.402   +24 23 02.98  .21813 1.1123 120.5 22.0 4.74  75
2019 12 05 10  00 23 31.657   +24 23 22.07  .21814 1.1123 120.5 22.0 4.84  75
2019 12 05 11  00 23 42.922   +24 23 41.14  .21814 1.1123 120.5 22.0 4.95  75
2019 12 05 12  00 23 54.197   +24 24 00.19  .21815 1.1123 120.5 22.0 5.05  75
2019 12 05 13  00 24 05.481   +24 24 19.21  .21816 1.1123 120.6 22.0 5.16  75
2019 12 05 14  00 24 16.775   +24 24 38.20  .21817 1.1123 120.6 22.0 5.27  75
2019 12 05 15  00 24 28.078   +24 24 57.18  .21818 1.1123 120.6 22.0 5.37  75
2019 12 05 16  00 24 39.390   +24 25 16.12  .21819 1.1124 120.6 22.0 5.48  75
2019 12 05 17  00 24 50.712   +24 25 35.05  .21819 1.1124 120.6 22.0 5.59  75
2019 12 05 18  00 25 02.044   +24 25 53.95  .21820 1.1124 120.6 22.0 5.71  75
2019 12 05 19  00 25 13.384   +24 26 12.82  .21821 1.1124 120.6 22.0 5.82  75
2019 12 05 20  00 25 24.735   +24 26 31.67  .21822 1.1124 120.6 22.0 5.93  75
2019 12 05 21  00 25 36.094   +24 26 50.50  .21823 1.1124 120.6 22.0 6.05  75
2019 12 05 22  00 25 47.463   +24 27 09.30  .21824 1.1124 120.6 22.0 6.17  75